Year,Month,Day,Hour,Minute,Value (Times are PST for temperature in C)
2016,03,25,00,00,7.10
2016,03,25,00,01,7.10
2016,03,25,00,02,7.10
2016,03,25,00,03,7.10
2016,03,25,00,04,7.10
2016,03,25,00,05,7.10
2016,03,25,00,06,7.10
2016,03,25,00,07,7.10
2016,03,25,00,08,7.10
2016,03,25,00,09,7.10
2016,03,25,00,10,7.10
2016,03,25,00,11,7.10
2016,03,25,00,12,7.00
2016,03,25,00,13,7.00
2016,03,25,00,14,7.00
2016,03,25,00,15,7.00
2016,03,25,00,16,7.00
2016,03,25,00,17,7.00
2016,03,25,00,18,7.00
2016,03,25,00,19,7.00
2016,03,25,00,20,7.00
2016,03,25,00,21,7.00
2016,03,25,00,22,6.90
2016,03,25,00,23,6.90
2016,03,25,00,24,6.90
2016,03,25,00,25,6.90
2016,03,25,00,26,6.90
2016,03,25,00,27,6.90
2016,03,25,00,28,6.90
2016,03,25,00,29,6.90
2016,03,25,00,30,6.90
2016,03,25,00,31,6.90
2016,03,25,00,32,6.90
2016,03,25,00,33,6.90
2016,03,25,00,34,6.90
2016,03,25,00,35,6.90
2016,03,25,00,36,6.90
2016,03,25,00,37,6.90
2016,03,25,00,38,6.90
2016,03,25,00,39,6.90
2016,03,25,00,40,6.90
2016,03,25,00,41,6.90
2016,03,25,00,42,6.90
2016,03,25,00,43,6.90
2016,03,25,00,44,6.90
2016,03,25,00,45,6.90
2016,03,25,00,46,6.90
2016,03,25,00,47,6.90
2016,03,25,00,48,6.90
2016,03,25,00,49,6.90
2016,03,25,00,50,6.90
2016,03,25,00,51,6.90
2016,03,25,00,52,7.00
2016,03,25,00,53,7.00
2016,03,25,00,54,7.00
2016,03,25,00,55,7.00
2016,03,25,00,56,7.00
2016,03,25,00,57,7.00
2016,03,25,00,58,7.00
2016,03,25,00,59,7.00
2016,03,25,01,00,7.00
2016,03,25,01,01,7.00
2016,03,25,01,02,7.00
2016,03,25,01,03,7.00
2016,03,25,01,04,7.00
2016,03,25,01,05,7.00
2016,03,25,01,06,7.00
2016,03,25,01,07,7.00
2016,03,25,01,08,7.00
2016,03,25,01,09,7.00
2016,03,25,01,10,7.00
2016,03,25,01,11,6.90
2016,03,25,01,12,6.90
2016,03,25,01,13,6.90
2016,03,25,01,14,6.90
2016,03,25,01,15,6.90
2016,03,25,01,16,6.90
2016,03,25,01,17,6.90
2016,03,25,01,18,6.90
2016,03,25,01,19,6.90
2016,03,25,01,20,6.90
2016,03,25,01,21,6.80
2016,03,25,01,22,6.80
2016,03,25,01,23,6.80
2016,03,25,01,24,6.80
2016,03,25,01,25,6.80
2016,03,25,01,26,6.80
2016,03,25,01,27,6.80
2016,03,25,01,28,6.80
2016,03,25,01,29,6.80
2016,03,25,01,30,6.80
2016,03,25,01,31,6.80
2016,03,25,01,32,6.90
2016,03,25,01,33,6.90
2016,03,25,01,34,6.90
2016,03,25,01,35,6.90
2016,03,25,01,36,6.90
2016,03,25,01,37,6.90
2016,03,25,01,38,6.90
2016,03,25,01,39,6.90
2016,03,25,01,40,6.90
2016,03,25,01,41,6.90
2016,03,25,01,42,6.90
2016,03,25,01,43,6.90
2016,03,25,01,44,6.90
2016,03,25,01,45,6.90
2016,03,25,01,46,6.90
2016,03,25,01,47,6.90
2016,03,25,01,48,6.90
2016,03,25,01,49,6.90
2016,03,25,01,50,6.90
2016,03,25,01,51,6.90
2016,03,25,01,52,6.90
2016,03,25,01,53,6.90
2016,03,25,01,54,6.90
2016,03,25,01,55,6.90
2016,03,25,01,56,6.80
2016,03,25,01,57,6.90
2016,03,25,01,58,6.80
2016,03,25,01,59,6.80
2016,03,25,02,00,6.80
2016,03,25,02,01,6.80
2016,03,25,02,02,6.80
2016,03,25,02,03,6.80
2016,03,25,02,04,6.80
2016,03,25,02,05,6.80
2016,03,25,02,06,6.80
2016,03,25,02,07,6.80
2016,03,25,02,08,6.80
2016,03,25,02,09,6.80
2016,03,25,02,10,6.80
2016,03,25,02,11,6.80
2016,03,25,02,12,6.80
2016,03,25,02,13,6.80
2016,03,25,02,14,6.80
2016,03,25,02,15,6.80
2016,03,25,02,16,6.80
2016,03,25,02,17,6.80
2016,03,25,02,18,6.80
2016,03,25,02,19,6.80
2016,03,25,02,20,6.80
2016,03,25,02,21,6.80
2016,03,25,02,22,6.80
2016,03,25,02,23,6.80
2016,03,25,02,24,6.80
2016,03,25,02,25,6.80
2016,03,25,02,26,6.80
2016,03,25,02,27,6.70
2016,03,25,02,28,6.70
2016,03,25,02,29,6.70
2016,03,25,02,30,6.70
2016,03,25,02,31,6.70
2016,03,25,02,32,6.70
2016,03,25,02,33,6.70
2016,03,25,02,34,6.70
2016,03,25,02,35,6.70
2016,03,25,02,36,6.70
2016,03,25,02,37,6.70
2016,03,25,02,38,6.70
2016,03,25,02,39,6.70
2016,03,25,02,40,6.70
2016,03,25,02,41,6.70
2016,03,25,02,42,6.70
2016,03,25,02,43,6.70
2016,03,25,02,44,6.70
2016,03,25,02,45,6.60
2016,03,25,02,46,6.60
2016,03,25,02,47,6.60
2016,03,25,02,48,6.50
2016,03,25,02,49,6.50
2016,03,25,02,50,6.50
2016,03,25,02,51,6.40
2016,03,25,02,52,6.40
2016,03,25,02,53,6.40
2016,03,25,02,54,6.30
2016,03,25,02,55,6.30
2016,03,25,02,56,6.30
2016,03,25,02,57,6.30
2016,03,25,02,58,6.20
2016,03,25,02,59,6.20
2016,03,25,03,00,6.20
2016,03,25,03,01,6.10
2016,03,25,03,02,6.10
2016,03,25,03,03,6.10
2016,03,25,03,04,6.00
2016,03,25,03,05,6.00
2016,03,25,03,06,6.00
2016,03,25,03,07,5.90
2016,03,25,03,08,5.90
2016,03,25,03,09,5.90
2016,03,25,03,10,5.90
2016,03,25,03,11,5.80
2016,03,25,03,12,5.80
2016,03,25,03,13,5.80
2016,03,25,03,14,5.80
2016,03,25,03,15,5.80
2016,03,25,03,16,5.80
2016,03,25,03,17,5.80
2016,03,25,03,18,5.70
2016,03,25,03,19,5.70
2016,03,25,03,20,5.70
2016,03,25,03,21,5.70
2016,03,25,03,22,5.70
2016,03,25,03,23,5.70
2016,03,25,03,24,5.70
2016,03,25,03,25,5.70
2016,03,25,03,26,5.70
2016,03,25,03,27,5.70
2016,03,25,03,28,5.70
2016,03,25,03,29,5.70
2016,03,25,03,30,5.70
2016,03,25,03,31,5.70
2016,03,25,03,32,5.70
2016,03,25,03,33,5.60
2016,03,25,03,34,5.60
2016,03,25,03,35,5.60
2016,03,25,03,36,5.60
2016,03,25,03,37,5.60
2016,03,25,03,38,5.60
2016,03,25,03,39,5.60
2016,03,25,03,40,5.60
2016,03,25,03,41,5.60
2016,03,25,03,42,5.60
2016,03,25,03,43,5.60
2016,03,25,03,44,5.50
2016,03,25,03,45,5.50
2016,03,25,03,46,5.50
2016,03,25,03,47,5.50
2016,03,25,03,48,5.50
2016,03,25,03,49,5.50
2016,03,25,03,50,5.60
2016,03,25,03,51,5.60
2016,03,25,03,52,5.60
2016,03,25,03,53,5.60
2016,03,25,03,54,5.60
2016,03,25,03,55,5.60
2016,03,25,03,56,5.70
2016,03,25,03,57,5.70
2016,03,25,03,58,5.70
2016,03,25,03,59,5.70
2016,03,25,04,00,5.70
2016,03,25,04,01,5.70
2016,03,25,04,02,5.70
2016,03,25,04,03,5.70
2016,03,25,04,04,5.70
2016,03,25,04,05,5.70
2016,03,25,04,06,5.80
2016,03,25,04,07,5.80
2016,03,25,04,08,5.80
2016,03,25,04,09,5.80
2016,03,25,04,10,5.80
2016,03,25,04,11,5.80
2016,03,25,04,12,5.80
2016,03,25,04,13,5.80
2016,03,25,04,14,5.80
2016,03,25,04,15,5.80
2016,03,25,04,16,5.80
2016,03,25,04,17,5.80
2016,03,25,04,18,5.80
2016,03,25,04,19,5.80
2016,03,25,04,20,5.80
2016,03,25,04,21,5.80
2016,03,25,04,22,5.80
2016,03,25,04,23,5.80
2016,03,25,04,24,5.80
2016,03,25,04,25,5.80
2016,03,25,04,26,5.80
2016,03,25,04,27,5.80
2016,03,25,04,28,5.80
2016,03,25,04,29,5.80
2016,03,25,04,30,5.80
2016,03,25,04,31,5.80
2016,03,25,04,32,5.80
2016,03,25,04,33,5.80
2016,03,25,04,34,5.80
2016,03,25,04,35,5.80
2016,03,25,04,36,5.70
2016,03,25,04,37,5.70
2016,03,25,04,38,5.70
2016,03,25,04,39,5.70
2016,03,25,04,40,5.60
2016,03,25,04,41,5.60
2016,03,25,04,42,5.60
2016,03,25,04,43,5.50
2016,03,25,04,44,5.50
2016,03,25,04,45,5.40
2016,03,25,04,46,5.40
2016,03,25,04,47,5.40
2016,03,25,04,48,5.30
2016,03,25,04,49,5.30
2016,03,25,04,50,5.30
2016,03,25,04,51,5.20
2016,03,25,04,52,5.20
2016,03,25,04,53,5.20
2016,03,25,04,54,5.20
2016,03,25,04,55,5.20
2016,03,25,04,56,5.10
2016,03,25,04,57,5.10
2016,03,25,04,58,5.10
2016,03,25,04,59,5.00
2016,03,25,05,00,5.00
2016,03,25,05,01,5.00
2016,03,25,05,02,5.00
2016,03,25,05,03,4.90
2016,03,25,05,04,4.90
2016,03,25,05,05,4.90
2016,03,25,05,06,4.90
2016,03,25,05,07,4.90
2016,03,25,05,08,5.00
2016,03,25,05,09,5.00
2016,03,25,05,10,5.00
2016,03,25,05,11,5.10
2016,03,25,05,12,5.10
2016,03,25,05,13,5.10
2016,03,25,05,14,5.10
2016,03,25,05,15,5.10
2016,03,25,05,16,5.10
2016,03,25,05,17,5.10
2016,03,25,05,18,5.00
2016,03,25,05,19,5.00
2016,03,25,05,20,5.00
2016,03,25,05,21,5.00
2016,03,25,05,22,4.90
2016,03,25,05,23,4.90
2016,03,25,05,24,4.90
2016,03,25,05,25,4.90
2016,03,25,05,26,4.80
2016,03,25,05,27,4.80
2016,03,25,05,28,4.80
2016,03,25,05,29,4.80
2016,03,25,05,30,4.70
2016,03,25,05,31,4.70
2016,03,25,05,32,4.70
2016,03,25,05,33,4.60
2016,03,25,05,34,4.60
2016,03,25,05,35,4.50
2016,03,25,05,36,4.50
2016,03,25,05,37,4.50
2016,03,25,05,38,4.40
2016,03,25,05,39,4.40
2016,03,25,05,40,4.30
2016,03,25,05,41,4.30
2016,03,25,05,42,4.30
2016,03,25,05,43,4.30
2016,03,25,05,44,4.20
2016,03,25,05,45,4.20
2016,03,25,05,46,4.20
2016,03,25,05,47,4.10
2016,03,25,05,48,4.10
2016,03,25,05,49,4.10
2016,03,25,05,50,4.00
2016,03,25,05,51,4.00
2016,03,25,05,52,4.00
2016,03,25,05,53,3.90
2016,03,25,05,54,3.90
2016,03,25,05,55,3.90
2016,03,25,05,56,3.90
2016,03,25,05,57,3.80
2016,03,25,05,58,3.80
2016,03,25,05,59,3.80
2016,03,25,06,00,3.80
2016,03,25,06,01,3.80
2016,03,25,06,02,3.70
2016,03,25,06,03,3.70
2016,03,25,06,04,3.70
2016,03,25,06,05,3.70
2016,03,25,06,06,3.70
2016,03,25,06,07,3.70
2016,03,25,06,08,3.70
2016,03,25,06,09,3.80
2016,03,25,06,10,3.80
2016,03,25,06,11,3.80
2016,03,25,06,12,3.80
2016,03,25,06,13,3.80
2016,03,25,06,14,3.80
2016,03,25,06,15,3.80
2016,03,25,06,16,3.70
2016,03,25,06,17,3.70
2016,03,25,06,18,3.70
2016,03,25,06,19,3.70
2016,03,25,06,20,3.70
2016,03,25,06,21,3.70
2016,03,25,06,22,3.60
2016,03,25,06,23,3.60
2016,03,25,06,24,3.60
2016,03,25,06,25,3.60
2016,03,25,06,26,3.50
2016,03,25,06,27,3.50
2016,03,25,06,28,3.50
2016,03,25,06,29,3.50
2016,03,25,06,30,3.40
2016,03,25,06,31,3.40
2016,03,25,06,32,3.40
2016,03,25,06,33,3.40
2016,03,25,06,34,3.30
2016,03,25,06,35,3.30
2016,03,25,06,36,3.30
2016,03,25,06,37,3.30
2016,03,25,06,38,3.30
2016,03,25,06,39,3.30
2016,03,25,06,40,3.30
2016,03,25,06,41,3.30
2016,03,25,06,42,3.30
2016,03,25,06,43,3.30
2016,03,25,06,44,3.30
2016,03,25,06,45,3.30
2016,03,25,06,46,3.30
2016,03,25,06,47,3.30
2016,03,25,06,48,3.30
2016,03,25,06,49,3.30
2016,03,25,06,50,3.30
2016,03,25,06,51,3.30
2016,03,25,06,52,3.30
2016,03,25,06,53,3.30
2016,03,25,06,54,3.30
2016,03,25,06,55,3.30
2016,03,25,06,56,3.30
2016,03,25,06,57,3.30
2016,03,25,06,58,3.20
2016,03,25,06,59,3.20
2016,03,25,07,00,3.20
2016,03,25,07,01,3.20
2016,03,25,07,02,3.20
2016,03,25,07,03,3.20
2016,03,25,07,04,3.20
2016,03,25,07,05,3.20
2016,03,25,07,06,3.10
2016,03,25,07,07,3.10
2016,03,25,07,08,3.10
2016,03,25,07,09,3.10
2016,03,25,07,10,3.10
2016,03,25,07,11,3.10
2016,03,25,07,12,3.00
2016,03,25,07,13,3.00
2016,03,25,07,14,3.00
2016,03,25,07,15,3.00
2016,03,25,07,16,2.90
2016,03,25,07,17,2.90
2016,03,25,07,18,2.90
2016,03,25,07,19,2.90
2016,03,25,07,20,2.80
2016,03,25,07,21,2.80
2016,03,25,07,22,2.80
2016,03,25,07,23,2.80
2016,03,25,07,24,2.80
2016,03,25,07,25,2.70
2016,03,25,07,26,2.70
2016,03,25,07,27,2.70
2016,03,25,07,28,2.70
2016,03,25,07,29,2.70
2016,03,25,07,30,2.70
2016,03,25,07,31,2.70
2016,03,25,07,32,2.60
2016,03,25,07,33,2.60
2016,03,25,07,34,2.60
2016,03,25,07,35,2.60
2016,03,25,07,36,2.60
2016,03,25,07,37,2.60
2016,03,25,07,38,2.60
2016,03,25,07,39,2.60
2016,03,25,07,40,2.60
2016,03,25,07,41,2.60
2016,03,25,07,42,2.60
2016,03,25,07,43,2.60
2016,03,25,07,44,2.60
2016,03,25,07,45,2.60
2016,03,25,07,46,2.60
2016,03,25,07,47,2.60
2016,03,25,07,48,2.60
2016,03,25,07,49,2.60
2016,03,25,07,50,2.60
2016,03,25,07,51,2.60
2016,03,25,07,52,2.60
2016,03,25,07,53,2.60
2016,03,25,07,54,2.60
2016,03,25,07,55,2.60
2016,03,25,07,56,2.70
2016,03,25,07,57,2.70
2016,03,25,07,58,2.70
2016,03,25,07,59,2.70
2016,03,25,08,00,2.70
2016,03,25,08,01,2.80
2016,03,25,08,02,2.80
2016,03,25,08,03,2.80
2016,03,25,08,04,2.90
2016,03,25,08,05,2.90
2016,03,25,08,06,2.90
2016,03,25,08,07,3.00
2016,03,25,08,08,3.00
2016,03,25,08,09,3.10
2016,03,25,08,10,3.10
2016,03,25,08,11,3.20
2016,03,25,08,12,3.20
2016,03,25,08,13,3.20
2016,03,25,08,14,3.20
2016,03,25,08,15,3.30
2016,03,25,08,16,3.30
2016,03,25,08,17,3.30
2016,03,25,08,18,3.40
2016,03,25,08,19,3.40
2016,03,25,08,20,3.40
2016,03,25,08,21,3.50
2016,03,25,08,22,3.50
2016,03,25,08,23,3.50
2016,03,25,08,24,3.60
2016,03,25,08,25,3.60
2016,03,25,08,26,3.70
2016,03,25,08,27,3.80
2016,03,25,08,28,3.80
2016,03,25,08,29,3.90
2016,03,25,08,30,3.90
2016,03,25,08,31,3.90
2016,03,25,08,32,4.00
2016,03,25,08,33,4.00
2016,03,25,08,34,4.00
2016,03,25,08,35,4.10
2016,03,25,08,36,4.10
2016,03,25,08,37,4.10
2016,03,25,08,38,4.20
2016,03,25,08,39,4.20
2016,03,25,08,40,4.20
2016,03,25,08,41,4.30
2016,03,25,08,42,4.30
2016,03,25,08,43,4.30
2016,03,25,08,44,4.40
2016,03,25,08,45,4.40
2016,03,25,08,46,4.50
2016,03,25,08,47,4.60
2016,03,25,08,48,4.60
2016,03,25,08,49,4.70
2016,03,25,08,50,4.70
2016,03,25,08,51,4.80
2016,03,25,08,52,4.80
2016,03,25,08,53,4.90
2016,03,25,08,54,4.90
2016,03,25,08,55,5.00
2016,03,25,08,56,5.10
2016,03,25,08,57,5.20
2016,03,25,08,58,5.20
2016,03,25,08,59,5.30
2016,03,25,09,00,5.40
2016,03,25,09,01,5.50
2016,03,25,09,02,5.50
2016,03,25,09,03,5.60
2016,03,25,09,04,5.70
2016,03,25,09,05,5.70
2016,03,25,09,06,5.80
2016,03,25,09,07,5.80
2016,03,25,09,08,5.90
2016,03,25,09,09,5.90
2016,03,25,09,10,6.00
2016,03,25,09,11,6.10
2016,03,25,09,12,6.20
2016,03,25,09,13,6.20
2016,03,25,09,14,6.30
2016,03,25,09,15,6.30
2016,03,25,09,16,6.40
2016,03,25,09,17,6.40
2016,03,25,09,18,6.50
2016,03,25,09,19,6.50
2016,03,25,09,20,6.50
2016,03,25,09,21,6.60
2016,03,25,09,22,6.60
2016,03,25,09,23,6.70
2016,03,25,09,24,6.70
2016,03,25,09,25,6.70
2016,03,25,09,26,6.80
2016,03,25,09,27,6.80
2016,03,25,09,28,6.80
2016,03,25,09,29,6.90
2016,03,25,09,30,6.90
2016,03,25,09,31,6.90
2016,03,25,09,32,7.00
2016,03,25,09,33,7.00
2016,03,25,09,34,7.10
2016,03,25,09,35,7.10
2016,03,25,09,36,7.10
2016,03,25,09,37,7.10
2016,03,25,09,38,7.20
2016,03,25,09,39,7.20
2016,03,25,09,40,7.30
2016,03,25,09,41,7.30
2016,03,25,09,42,7.30
2016,03,25,09,43,7.40
2016,03,25,09,44,7.40
2016,03,25,09,45,7.50
2016,03,25,09,46,7.60
2016,03,25,09,47,7.60
2016,03,25,09,48,7.70
2016,03,25,09,49,7.70
2016,03,25,09,50,7.70
2016,03,25,09,51,7.80
2016,03,25,09,52,7.80
2016,03,25,09,53,7.80
2016,03,25,09,54,7.90
2016,03,25,09,55,7.90
2016,03,25,09,56,7.90
2016,03,25,09,57,8.00
2016,03,25,09,58,8.00
2016,03,25,09,59,8.10
2016,03,25,10,00,8.10
2016,03,25,10,01,8.10
2016,03,25,10,02,8.20
2016,03,25,10,03,8.20
2016,03,25,10,04,8.20
2016,03,25,10,05,8.30
2016,03,25,10,06,8.30
2016,03,25,10,07,8.30
2016,03,25,10,08,8.40
2016,03,25,10,09,8.40
2016,03,25,10,10,8.50
2016,03,25,10,11,8.50
2016,03,25,10,12,8.60
2016,03,25,10,13,8.60
2016,03,25,10,14,8.60
2016,03,25,10,15,8.70
2016,03,25,10,16,8.70
2016,03,25,10,17,8.70
2016,03,25,10,18,8.80
2016,03,25,10,19,8.80
2016,03,25,10,20,8.80
2016,03,25,10,21,8.90
2016,03,25,10,22,8.90
2016,03,25,10,23,9.00
2016,03,25,10,24,9.00
2016,03,25,10,25,9.10
2016,03,25,10,26,9.20
2016,03,25,10,27,9.20
2016,03,25,10,28,9.20
2016,03,25,10,29,9.30
2016,03,25,10,30,9.40
2016,03,25,10,31,9.40
2016,03,25,10,32,9.50
2016,03,25,10,33,9.60
2016,03,25,10,34,9.70
2016,03,25,10,35,9.80
2016,03,25,10,36,9.90
2016,03,25,10,37,9.90
2016,03,25,10,38,10.00
2016,03,25,10,39,10.10
2016,03,25,10,40,10.10
2016,03,25,10,41,10.10
2016,03,25,10,42,10.20
2016,03,25,10,43,10.20
2016,03,25,10,44,10.20
2016,03,25,10,45,10.20
2016,03,25,10,46,10.20
2016,03,25,10,47,10.20
2016,03,25,10,48,10.20
2016,03,25,10,49,10.20
2016,03,25,10,50,10.20
2016,03,25,10,51,10.30
2016,03,25,10,52,10.40
2016,03,25,10,53,10.40
2016,03,25,10,54,10.50
2016,03,25,10,55,10.60
2016,03,25,10,56,10.70
2016,03,25,10,57,10.80
2016,03,25,10,58,10.90
2016,03,25,10,59,11.00
2016,03,25,11,00,11.20
2016,03,25,11,01,11.30
2016,03,25,11,02,11.30
2016,03,25,11,03,11.40
2016,03,25,11,04,11.40
2016,03,25,11,05,11.50
2016,03,25,11,06,11.60
2016,03,25,11,07,11.50
2016,03,25,11,08,11.50
2016,03,25,11,09,11.50
2016,03,25,11,10,11.40
2016,03,25,11,11,11.50
2016,03,25,11,12,11.50
2016,03,25,11,13,11.60
2016,03,25,11,14,11.70
2016,03,25,11,15,11.70
2016,03,25,11,16,11.80
2016,03,25,11,17,11.90
2016,03,25,11,18,11.90
2016,03,25,11,19,11.90
2016,03,25,11,20,11.90
2016,03,25,11,21,11.80
2016,03,25,11,22,11.80
2016,03,25,11,23,11.80
2016,03,25,11,24,11.70
2016,03,25,11,25,11.70
2016,03,25,11,26,11.60
2016,03,25,11,27,11.50
2016,03,25,11,28,11.50
2016,03,25,11,29,11.50
2016,03,25,11,30,11.50
2016,03,25,11,31,11.60
2016,03,25,11,32,11.60
2016,03,25,11,33,11.70
2016,03,25,11,34,11.80
2016,03,25,11,35,11.90
2016,03,25,11,36,12.00
2016,03,25,11,37,12.10
2016,03,25,11,38,12.20
2016,03,25,11,39,12.30
2016,03,25,11,40,12.30
2016,03,25,11,41,12.30
2016,03,25,11,42,12.30
2016,03,25,11,43,12.30
2016,03,25,11,44,12.20
2016,03,25,11,45,12.20
2016,03,25,11,46,12.20
2016,03,25,11,47,12.10
2016,03,25,11,48,12.00
2016,03,25,11,49,11.90
2016,03,25,11,50,11.90
2016,03,25,11,51,11.90
2016,03,25,11,52,11.80
2016,03,25,11,53,11.80
2016,03,25,11,54,11.80
2016,03,25,11,55,11.90
2016,03,25,11,56,11.90
2016,03,25,11,57,12.00
2016,03,25,11,58,12.00
2016,03,25,11,59,12.10
2016,03,25,12,00,12.10
2016,03,25,12,01,12.10
2016,03,25,12,02,12.20
2016,03,25,12,03,12.20
2016,03,25,12,04,12.30
2016,03,25,12,05,12.30
2016,03,25,12,06,12.30
2016,03,25,12,07,12.30
2016,03,25,12,08,12.40
2016,03,25,12,09,12.40
2016,03,25,12,10,12.50
2016,03,25,12,11,12.60
2016,03,25,12,12,12.60
2016,03,25,12,13,12.70
2016,03,25,12,14,12.80
2016,03,25,12,15,12.80
2016,03,25,12,16,12.80
2016,03,25,12,17,12.90
2016,03,25,12,18,12.90
2016,03,25,12,19,12.90
2016,03,25,12,20,12.80
2016,03,25,12,21,12.80
2016,03,25,12,22,12.70
2016,03,25,12,23,12.70
2016,03,25,12,24,12.60
2016,03,25,12,25,12.50
2016,03,25,12,26,12.50
2016,03,25,12,27,12.40
2016,03,25,12,28,12.30
2016,03,25,12,29,12.30
2016,03,25,12,30,12.20
2016,03,25,12,31,12.20
2016,03,25,12,32,12.10
2016,03,25,12,33,12.00
2016,03,25,12,34,11.90
2016,03,25,12,35,11.80
2016,03,25,12,36,11.80
2016,03,25,12,37,11.70
2016,03,25,12,38,11.70
2016,03,25,12,39,11.70
2016,03,25,12,40,11.70
2016,03,25,12,41,11.70
2016,03,25,12,42,11.70
2016,03,25,12,43,11.70
2016,03,25,12,44,11.80
2016,03,25,12,45,11.80
2016,03,25,12,46,11.90
2016,03,25,12,47,12.00
2016,03,25,12,48,12.10
2016,03,25,12,49,12.10
2016,03,25,12,50,12.20
2016,03,25,12,51,12.20
2016,03,25,12,52,12.20
2016,03,25,12,53,12.20
2016,03,25,12,54,12.20
2016,03,25,12,55,12.10
2016,03,25,12,56,12.10
2016,03,25,12,57,12.00
2016,03,25,12,58,12.00
2016,03,25,12,59,11.90
2016,03,25,13,00,11.90
2016,03,25,13,01,11.90
2016,03,25,13,02,11.90
2016,03,25,13,03,11.80
2016,03,25,13,04,11.80
2016,03,25,13,05,11.80
2016,03,25,13,06,11.80
2016,03,25,13,07,11.70
2016,03,25,13,08,11.70
2016,03,25,13,09,11.70
2016,03,25,13,10,11.60
2016,03,25,13,11,11.60
2016,03,25,13,12,11.50
2016,03,25,13,13,11.50
2016,03,25,13,14,11.40
2016,03,25,13,15,11.40
2016,03,25,13,16,11.40
2016,03,25,13,17,11.40
2016,03,25,13,18,11.30
2016,03,25,13,19,11.30
2016,03,25,13,20,11.30
2016,03,25,13,21,11.30
2016,03,25,13,22,11.30
2016,03,25,13,23,11.30
2016,03,25,13,24,11.30
2016,03,25,13,25,11.30
2016,03,25,13,26,11.30
2016,03,25,13,27,11.30
2016,03,25,13,28,11.30
2016,03,25,13,29,11.30
2016,03,25,13,30,11.30
2016,03,25,13,31,11.30
2016,03,25,13,32,11.30
2016,03,25,13,33,11.30
2016,03,25,13,34,11.30
2016,03,25,13,35,11.20
2016,03,25,13,36,11.20
2016,03,25,13,37,11.20
2016,03,25,13,38,11.20
2016,03,25,13,39,11.20
2016,03,25,13,40,11.20
2016,03,25,13,41,11.20
2016,03,25,13,42,11.20
2016,03,25,13,43,11.20
2016,03,25,13,44,11.20
2016,03,25,13,45,11.20
2016,03,25,13,46,11.20
2016,03,25,13,47,11.20
2016,03,25,13,48,11.20
2016,03,25,13,49,11.20
2016,03,25,13,50,11.20
2016,03,25,13,51,11.20
2016,03,25,13,52,11.20
2016,03,25,13,53,11.20
2016,03,25,13,54,11.20
2016,03,25,13,55,11.30
2016,03,25,13,56,11.30
2016,03,25,13,57,11.30
2016,03,25,13,58,11.30
2016,03,25,13,59,11.30
2016,03,25,14,00,11.30
2016,03,25,14,01,11.40
2016,03,25,14,02,11.40
2016,03,25,14,03,11.50
2016,03,25,14,04,11.60
2016,03,25,14,05,11.60
2016,03,25,14,06,11.70
2016,03,25,14,07,11.80
2016,03,25,14,08,11.90
2016,03,25,14,09,12.00
2016,03,25,14,10,12.10
2016,03,25,14,11,12.20
2016,03,25,14,12,12.30
2016,03,25,14,13,12.30
2016,03,25,14,14,12.40
2016,03,25,14,15,12.40
2016,03,25,14,16,12.50
2016,03,25,14,17,12.60
2016,03,25,14,18,12.70
2016,03,25,14,19,12.70
2016,03,25,14,20,12.80
2016,03,25,14,21,12.90
2016,03,25,14,22,12.90
2016,03,25,14,23,13.00
2016,03,25,14,24,13.00
2016,03,25,14,25,13.00
2016,03,25,14,26,13.00
2016,03,25,14,27,13.00
2016,03,25,14,28,12.90
2016,03,25,14,29,12.90
2016,03,25,14,30,12.80
2016,03,25,14,31,12.70
2016,03,25,14,32,12.70
2016,03,25,14,33,12.70
2016,03,25,14,34,12.60
2016,03,25,14,35,12.60
2016,03,25,14,36,12.70
2016,03,25,14,37,12.70
2016,03,25,14,38,12.70
2016,03,25,14,39,12.80
2016,03,25,14,40,12.90
2016,03,25,14,41,12.90
2016,03,25,14,42,13.00
2016,03,25,14,43,13.10
2016,03,25,14,44,13.20
2016,03,25,14,45,13.30
2016,03,25,14,46,13.30
2016,03,25,14,47,13.40
2016,03,25,14,48,13.50
2016,03,25,14,49,13.60
2016,03,25,14,50,13.60
2016,03,25,14,51,13.70
2016,03,25,14,52,13.80
2016,03,25,14,53,13.80
2016,03,25,14,54,13.90
2016,03,25,14,55,13.90
2016,03,25,14,56,14.00
2016,03,25,14,57,14.00
2016,03,25,14,58,14.10
2016,03,25,14,59,14.10
2016,03,25,15,00,14.20
2016,03,25,15,01,14.20
2016,03,25,15,02,14.20
2016,03,25,15,03,14.30
2016,03,25,15,04,14.30
2016,03,25,15,05,14.30
2016,03,25,15,06,14.30
2016,03,25,15,07,14.30
2016,03,25,15,08,14.30
2016,03,25,15,09,14.30
2016,03,25,15,10,14.30
2016,03,25,15,11,14.30
2016,03,25,15,12,14.30
2016,03,25,15,13,14.30
2016,03,25,15,14,14.30
2016,03,25,15,15,14.30
2016,03,25,15,16,14.30
2016,03,25,15,17,14.30
2016,03,25,15,18,14.20
2016,03,25,15,19,14.20
2016,03,25,15,20,14.20
2016,03,25,15,21,14.20
2016,03,25,15,22,14.20
2016,03,25,15,23,14.20
2016,03,25,15,24,14.20
2016,03,25,15,25,14.20
2016,03,25,15,26,14.20
2016,03,25,15,27,14.20
2016,03,25,15,28,14.10
2016,03,25,15,29,14.10
2016,03,25,15,30,14.10
2016,03,25,15,31,14.10
2016,03,25,15,32,14.10
2016,03,25,15,33,14.10
2016,03,25,15,34,14.10
2016,03,25,15,35,14.10
2016,03,25,15,36,14.10
2016,03,25,15,37,14.20
2016,03,25,15,38,14.20
2016,03,25,15,39,14.20
2016,03,25,15,40,14.20
2016,03,25,15,41,14.20
2016,03,25,15,42,14.10
2016,03,25,15,43,14.10
2016,03,25,15,44,14.10
2016,03,25,15,45,14.00
2016,03,25,15,46,14.00
2016,03,25,15,47,14.00
2016,03,25,15,48,13.90
2016,03,25,15,49,13.90
2016,03,25,15,50,13.90
2016,03,25,15,51,13.90
2016,03,25,15,52,13.90
2016,03,25,15,53,13.90
2016,03,25,15,54,13.90
2016,03,25,15,55,13.90
2016,03,25,15,56,13.80
2016,03,25,15,57,13.80
2016,03,25,15,58,13.80
2016,03,25,15,59,13.80
2016,03,25,16,00,13.80
2016,03,25,16,01,13.80
2016,03,25,16,02,13.80
2016,03,25,16,03,13.80
2016,03,25,16,04,13.80
2016,03,25,16,05,13.80
2016,03,25,16,06,13.70
2016,03,25,16,07,13.70
2016,03,25,16,08,13.70
2016,03,25,16,09,13.70
2016,03,25,16,10,13.70
2016,03,25,16,11,13.80
2016,03,25,16,12,13.80
2016,03,25,16,13,13.80
2016,03,25,16,14,13.80
2016,03,25,16,15,13.80
2016,03,25,16,16,13.80
2016,03,25,16,17,13.80
2016,03,25,16,18,13.80
2016,03,25,16,19,13.80
2016,03,25,16,20,13.80
2016,03,25,16,21,13.80
2016,03,25,16,22,13.80
2016,03,25,16,23,13.70
2016,03,25,16,24,13.70
2016,03,25,16,25,13.70
2016,03,25,16,26,13.70
2016,03,25,16,27,13.70
2016,03,25,16,28,13.70
2016,03,25,16,29,13.70
2016,03,25,16,30,13.60
2016,03,25,16,31,13.60
2016,03,25,16,32,13.60
2016,03,25,16,33,13.70
2016,03,25,16,34,13.70
2016,03,25,16,35,13.70
2016,03,25,16,36,13.80
2016,03,25,16,37,13.80
2016,03,25,16,38,13.80
2016,03,25,16,39,13.80
2016,03,25,16,40,13.80
2016,03,25,16,41,13.80
2016,03,25,16,42,13.80
2016,03,25,16,43,13.80
2016,03,25,16,44,13.80
2016,03,25,16,45,13.80
2016,03,25,16,46,13.80
2016,03,25,16,47,13.80
2016,03,25,16,48,13.70
2016,03,25,16,49,13.70
2016,03,25,16,50,13.70
2016,03,25,16,51,13.70
2016,03,25,16,52,13.70
2016,03,25,16,53,13.70
2016,03,25,16,54,13.70
2016,03,25,16,55,13.70
2016,03,25,16,56,13.70
2016,03,25,16,57,13.70
2016,03,25,16,58,13.70
2016,03,25,16,59,13.80
2016,03,25,17,00,13.80
2016,03,25,17,01,13.80
2016,03,25,17,02,13.80
2016,03,25,17,03,13.90
2016,03,25,17,04,13.90
2016,03,25,17,05,13.90
2016,03,25,17,06,13.90
2016,03,25,17,07,13.90
2016,03,25,17,08,13.90
2016,03,25,17,09,14.00
2016,03,25,17,10,14.00
2016,03,25,17,11,14.00
2016,03,25,17,12,14.10
2016,03,25,17,13,14.10
2016,03,25,17,14,14.10
2016,03,25,17,15,14.10
2016,03,25,17,16,14.00
2016,03,25,17,17,14.00
2016,03,25,17,18,14.00
2016,03,25,17,19,14.00
2016,03,25,17,20,14.00
2016,03,25,17,21,14.00
2016,03,25,17,22,14.00
2016,03,25,17,23,13.90
2016,03,25,17,24,13.90
2016,03,25,17,25,13.90
2016,03,25,17,26,13.90
2016,03,25,17,27,13.80
2016,03,25,17,28,13.80
2016,03,25,17,29,13.80
2016,03,25,17,30,13.80
2016,03,25,17,31,13.80
2016,03,25,17,32,13.70
2016,03,25,17,33,13.70
2016,03,25,17,34,13.70
2016,03,25,17,35,13.70
2016,03,25,17,36,13.70
2016,03,25,17,37,13.70
2016,03,25,17,38,13.70
2016,03,25,17,39,13.70
2016,03,25,17,40,13.70
2016,03,25,17,41,13.70
2016,03,25,17,42,13.70
2016,03,25,17,43,13.70
2016,03,25,17,44,13.60
2016,03,25,17,45,13.60
2016,03,25,17,46,13.60
2016,03,25,17,47,13.60